458  
ASUS44 KLCH 210010  
RWRLCH  
REGIONAL WEATHER ROUNDUP  
NATIONAL WEATHER SERVICE LAKE CHARLES LA  
700 PM CDT FRI JUL 20 2018  
 
NOTE: "FAIR" INDICATES FEW OR NO CLOUDS BELOW 12,000 FEET WITH NO  
SIGNIFICANT WEATHER AND/OR S TO VISIBILITY
.  
 
ACROSS SOUTHEAST TEXAS  
 
CITY SKY/WX TMP DP RH WIND PRES REMARKS
 
BEAUMONT FAIR 89 78 70 S10 29.93S HX 103  
BEAUMONT CITY FAIR 92 76 60 S7 29.94S HX 105  
ORANGE FAIR 89 81 77 SW9 29.95F HX 107  
JASPER FAIR 93 76 57 CALM 29.94F HX 104  

 
 
ACROSS CENTRAL LOUISIANA  
 
CITY SKY/WX TMP DP RH WIND PRES REMARKS
 
LEESVILLE FAIR 93 73 53 W9 29.91F HX 101  
FULLERTON FAIR 93 75 55 CALM 29.90S HX 104  
ALEXANDRIA INT FAIR 92 74 55 S6 29.88F HX 101  
ESLER FIELD FAIR 93 75 55 S5 29.91S HX 104  
DERIDDER FAIR 92 72 51 S5 29.94S HAZE HX 100  
OAKDALE FAIR 92 75 57 CALM 29.92S HX 104  
OPELOUSAS FAIR 90 75 59 SW3 29.92S HX 100  

 
 
ACROSS SOUTHWEST AND SOUTH CENTRAL LOUISIANA  
 
CITY SKY/WX TMP DP RH WIND PRES REMARKS
 
SULPHUR FAIR 90 78 67 S10 29.93F HX 104  
LAKE CHARLES FAIR 90 77 65 S8 29.93F HX 103  
CHENNAULT INT SUNNY 90 77 66 S10G18 29.92F HX 102  
CAMERON PHI CLEAR 86 79 79 SW8G16 29.93F  
DEQUINCY FAIR 91 75 58 CALM 29.93F HX 102  
JENNINGS FAIR 90 80 72 SW8 29.92F HX 106  
LAFAYETTE FAIR 94 73 50 W7 29.92F HX 103  
NEW IBERIA FAIR 91 75 59 W8 29.93F HX 101  
ABBEVILLE FAIR 89 79 72 MISG 29.93F HX 103  
PATTERSON FAIR 89 80 74 SW8 29.94F HX 106  
SALT POINT N/A N/A N/A N/A VRB7 29.93F  

 
 
SELECTED SITES ACROSS THE REGION  
 
CITY SKY/WX TMP DP RH WIND PRES REMARKS
 
HOUSTON BUSH FAIR 96 71 44 S8 29.91F HX 103  
HOUSTON HOBBY FAIR 94 74 52 S9 29.92S HX 104  
GALVESTON FAIR 87 79 76 S14 29.96R HX 101  
COLLEGE STAT SUNNY 96 72 45 SE16 29.91S HX 104  
CONROE MOSUNNY 95 73 48 SW3 29.93S HX 104  
HUNTSVILLE SUNNY 95 69 42 S9 29.93S HX 100  
LUFKIN CLOUDY 95 68 41 S8 29.91F  
SHREVEPORT PTSUNNY 101 62 27 SW9 29.86F HX 102  
MONROE FAIR 94 76 55 S8 29.87F HX 106  
NATCHEZ MS FAIR 92 78 63 S5 29.92F HX 107  
BATON ROUGE FAIR 91 70 49 W6 29.92S  
N.O. INTL ARPT FAIR 92 78 63 SW6 29.91F HX 107  
SLIDELL FAIR 91 76 61 SW3 29.91F HX 103  

 
 
MARINE REPORTS  
 
STATION/POSITION TIME SKY/WX TEMP WIND PRES VSBY
 
AIR SEA DIR/SP/G  
(UTC) (F) (DEG/KT/KT) (MB) (MI)  
BUOY 30 S HIGH I NOT AVBL  
SEA RIM ST PARK 0000 86 220/ 9/ 11 1014.7R  
PORT ARTHUR 2342 87 89 200/ 8/ 10 1014.4R  
SABINE PASS N 2342 87 92 210/ 7/ 11 1015.9S  
TEXAS POINT NOT AVBL  
CALCASIEU PASS 2342 86 89 240/ 9/ 12 1013.6F  
LK CHARLES BEACH 2342 91 89 1012.9F  
MARSH ISLAND 2300 86 N/A  
FRESH WATER LOCK 2342 87 86 230/ 9/ 12 1014.2F  
AMERADA PASS 2342 89 90 240/ 3/ 7 1014.0F  

 
 
 
CLICK HERE TO GO TO PREVIOUS BULLETINS.

The Nexlab LA Page
The Nexlab TX Page Main Text Page